When you browse on this site, cookies collect data to enhance your experience and personalize the content and advertising you see.
Visit our Privacy Policy to learn more. By continuing to use the site, you agree to this use of cookies and data.
  • In United Kingdom
  • List of Countries
  • For 7 days
  • Water Temperature
  • Satellite Maps
  • Weather Map
  • Weather Widgets
  • user-avatar
    Login

    Hourly Weather Malikrabat

    Today, 16 June, Sunday

    Time Temperature Precipitation Wind Pressure Humidity
    00:00 +26°C° 0 mm 3 mps 728 mmHg 16%
    01:00 +25°C° 0 mm 3 mps 728 mmHg 16%
    02:00 +24°C° 0 mm 3 mps 728 mmHg 18%
    03:00 +24°C° 0 mm 2 mps 728 mmHg 19%
    04:00 +23°C° 0 mm 2 mps 728 mmHg 20%
    05:00 +25°C° 0 mm 2 mps 728 mmHg 17%
    06:00 +28°C° 0 mm 2 mps 729 mmHg 14%
    07:00 +30°C° 0 mm 2 mps 729 mmHg 11%
    08:00 +31°C° 0 mm 2 mps 729 mmHg 11%
    09:00 +32°C° 0 mm 2 mps 729 mmHg 10%
    10:00 +34°C° 0 mm 3 mps 729 mmHg 9%
    11:00 +35°C° 0 mm 3 mps 729 mmHg 8%
    12:00 +36°C° 0 mm 3 mps 729 mmHg 8%
    13:00 +36°C° 0 mm 4 mps 728 mmHg 7%
    14:00 +36°C° 0 mm 4 mps 728 mmHg 7%
    15:00 +36°C° 0 mm 5 mps 728 mmHg 7%
    16:00 +37°C° 0 mm 5 mps 728 mmHg 7%
    17:00 +35°C° 0 mm 5 mps 728 mmHg 8%
    18:00 +34°C° 0 mm 5 mps 728 mmHg 9%
    19:00 +32°C° 0 mm 5 mps 728 mmHg 11%
    20:00 +30°C° 0 mm 6 mps 728 mmHg 13%
    21:00 +29°C° 0 mm 6 mps 728 mmHg 16%
    22:00 +27°C° 0 mm 7 mps 728 mmHg 19%
    23:00 +27°C° 0 mm 7 mps 728 mmHg 20%

    Tomorrow, 17 June, Monday

    Time Temperature Precipitation Wind Pressure Humidity
    00:00 +26°C° 0 mm 6 mps 728 mmHg 21%
    01:00 +25°C° 0 mm 5 mps 728 mmHg 22%
    02:00 +23°C° 0 mm 5 mps 728 mmHg 23%
    03:00 +23°C° 0 mm 5 mps 728 mmHg 23%
    04:00 +22°C° 0 mm 4 mps 727 mmHg 24%
    05:00 +25°C° 0 mm 4 mps 728 mmHg 22%
    06:00 +26°C° 0 mm 4 mps 728 mmHg 20%
    07:00 +28°C° 0 mm 4 mps 728 mmHg 17%
    08:00 +29°C° 0 mm 4 mps 728 mmHg 16%
    09:00 +32°C° 0 mm 4 mps 728 mmHg 14%
    10:00 +34°C° 0 mm 3 mps 728 mmHg 13%
    11:00 +35°C° 0 mm 3 mps 728 mmHg 12%
    12:00 +36°C° 0 mm 3 mps 727 mmHg 12%
    13:00 +37°C° 0 mm 2 mps 727 mmHg 11%
    14:00 +37°C° 0 mm 4 mps 727 mmHg 11%
    15:00 +37°C° 0 mm 5 mps 726 mmHg 11%
    16:00 +38°C° 0 mm 6 mps 726 mmHg 11%
    17:00 +36°C° 0 mm 6 mps 726 mmHg 12%
    18:00 +35°C° 0 mm 7 mps 726 mmHg 14%
    19:00 +33°C° 0 mm 7 mps 726 mmHg 15%
    20:00 +32°C° 0 mm 7 mps 726 mmHg 16%
    21:00 +30°C° 0 mm 6 mps 726 mmHg 18%
    22:00 +29°C° 0 mm 6 mps 726 mmHg 19%
    23:00 +28°C° 0 mm 5 mps 726 mmHg 20%

    Day after tomorrow, 18 June, Tuesday

    Time Temperature Precipitation Wind Pressure Humidity
    00:00 +28°C° 0 mm 5 mps 726 mmHg 21%
    01:00 +27°C° 0 mm 4 mps 726 mmHg 22%
    02:00 +27°C° 0 mm 4 mps 726 mmHg 23%
    03:00 +26°C° 0 mm 4 mps 725 mmHg 23%
    04:00 +26°C° 0 mm 4 mps 725 mmHg 24%
    05:00 +28°C° 0 mm 4 mps 726 mmHg 21%
    06:00 +30°C° 0 mm 5 mps 726 mmHg 19%
    07:00 +33°C° 0 mm 5 mps 726 mmHg 16%
    08:00 +35°C° 0 mm 6 mps 726 mmHg 14%
    09:00 +36°C° 0 mm 7 mps 726 mmHg 12%
    10:00 +39°C° 0 mm 8 mps 727 mmHg 11%
    11:00 +40°C° 0 mm 8 mps 726 mmHg 10%
    12:00 +40°C° 0 mm 8 mps 726 mmHg 10%
    13:00 +41°C° 0 mm 8 mps 726 mmHg 10%
    14:00 +40°C° 0 mm 7 mps 726 mmHg 10%
    15:00 +40°C° 0 mm 7 mps 725 mmHg 10%
    16:00 +40°C° 0 mm 7 mps 725 mmHg 10%
    17:00 +39°C° 0 mm 6 mps 725 mmHg 11%
    18:00 +36°C° 0 mm 6 mps 725 mmHg 12%
    19:00 +35°C° 0 mm 5 mps 725 mmHg 14%
    20:00 +34°C° 0 mm 4 mps 725 mmHg 15%
    21:00 +33°C° 0 mm 4 mps 726 mmHg 16%
    22:00 +30°C° 0 mm 4 mps 726 mmHg 17%
    23:00 +30°C° 0 mm 4 mps 725 mmHg 18%

    19 June, Wednesday

    Time Temperature Precipitation Wind Pressure Humidity
    00:00 +29°C° 0 mm 4 mps 725 mmHg 19%
    01:00 +28°C° 0 mm 5 mps 725 mmHg 21%
    02:00 +28°C° 0 mm 5 mps 725 mmHg 21%
    03:00 +28°C° 0 mm 6 mps 725 mmHg 22%
    04:00 +28°C° 0 mm 7 mps 725 mmHg 23%
    05:00 +30°C° 0 mm 6 mps 725 mmHg 21%
    06:00 +33°C° 0 mm 4 mps 726 mmHg 19%
    07:00 +35°C° 0 mm 3 mps 726 mmHg 17%
    08:00 +36°C° 0 mm 5 mps 726 mmHg 15%
    09:00 +38°C° 0 mm 6 mps 726 mmHg 14%
    10:00 +39°C° 0 mm 7 mps 726 mmHg 13%
    11:00 +40°C° 0 mm 8 mps 726 mmHg 12%
    12:00 +40°C° 0 mm 8 mps 726 mmHg 12%
    13:00 +41°C° 0 mm 8 mps 726 mmHg 11%
    14:00 +40°C° 0 mm 8 mps 726 mmHg 11%
    15:00 +40°C° 0 mm 8 mps 726 mmHg 12%
    16:00 +40°C° 0 mm 8 mps 725 mmHg 12%
    17:00 +38°C° 0 mm 7 mps 725 mmHg 14%
    18:00 +36°C° 0 mm 7 mps 725 mmHg 15%
    19:00 +34°C° 0 mm 6 mps 725 mmHg 17%
    20:00 +33°C° 0 mm 5 mps 725 mmHg 18%
    21:00 +32°C° 0 mm 5 mps 725 mmHg 19%
    22:00 +30°C° 0 mm 4 mps 725 mmHg 20%
    23:00 +30°C° 0 mm 4 mps 725 mmHg 20%

    20 June, Thursday

    Time Temperature Precipitation Wind Pressure Humidity
    00:00 +29°C° 0 mm 4 mps 725 mmHg 19%
    01:00 +28°C° 0 mm 4 mps 725 mmHg 19%
    02:00 +28°C° 0 mm 3 mps 725 mmHg 19%
    03:00 +28°C° 0 mm 3 mps 725 mmHg 19%
    04:00 +28°C° 0 mm 2 mps 725 mmHg 18%
    05:00 +29°C° 0 mm 2 mps 725 mmHg 17%
    06:00 +30°C° 0 mm 2 mps 725 mmHg 15%
    07:00 +32°C° 0 mm 2 mps 726 mmHg 14%
    08:00 +34°C° 0 mm 3 mps 726 mmHg 14%
    09:00 +36°C° 0 mm 5 mps 726 mmHg 14%
    10:00 +39°C° 0 mm 6 mps 726 mmHg 14%
    11:00 +39°C° 0 mm 6 mps 726 mmHg 14%
    12:00 +40°C° 0 mm 6 mps 726 mmHg 13%
    13:00 +40°C° 0 mm 6 mps 726 mmHg 13%
    14:00 +40°C° 0 mm 6 mps 725 mmHg 12%
    15:00 +40°C° 0 mm 6 mps 725 mmHg 12%
    16:00 +40°C° 0 mm 7 mps 725 mmHg 12%
    17:00 +39°C° 0 mm 6 mps 725 mmHg 13%
    18:00 +36°C° 0 mm 5 mps 725 mmHg 13%
    19:00 +35°C° 0 mm 5 mps 725 mmHg 14%
    20:00 +34°C° 0 mm 5 mps 725 mmHg 14%
    21:00 +33°C° 0 mm 6 mps 725 mmHg 14%
    22:00 +32°C° 0 mm 7 mps 725 mmHg 14%
    23:00 +30°C° 0 mm 6 mps 725 mmHg 14%

    21 June, Friday

    Time Temperature Precipitation Wind Pressure Humidity
    00:00 +29°C° 0 mm 5 mps 725 mmHg 15%
    01:00 +29°C° 0 mm 4 mps 725 mmHg 15%
    02:00 +28°C° 0 mm 4 mps 725 mmHg 15%
    03:00 +27°C° 0 mm 4 mps 725 mmHg 16%
    04:00 +27°C° 0 mm 3 mps 725 mmHg 17%
    05:00 +29°C° 0 mm 4 mps 725 mmHg 16%
    06:00 +32°C° 0 mm 4 mps 726 mmHg 14%
    07:00 +34°C° 0 mm 4 mps 726 mmHg 13%
    08:00 +35°C° 0 mm 4 mps 726 mmHg 13%
    09:00 +37°C° 0 mm 5 mps 727 mmHg 12%
    10:00 +39°C° 0 mm 5 mps 727 mmHg 11%
    11:00 +40°C° 0 mm 5 mps 726 mmHg 11%
    12:00 +40°C° 0 mm 5 mps 726 mmHg 11%
    13:00 +41°C° 0 mm 6 mps 726 mmHg 11%
    14:00 +41°C° 0 mm 6 mps 726 mmHg 11%
    15:00 +41°C° 0 mm 6 mps 726 mmHg 11%
    16:00 +41°C° 0 mm 6 mps 725 mmHg 11%
    17:00 +39°C° 0 mm 7 mps 725 mmHg 12%
    18:00 +36°C° 0 mm 7 mps 725 mmHg 13%
    19:00 +35°C° 0 mm 7 mps 725 mmHg 14%
    20:00 +34°C° 0 mm 7 mps 726 mmHg 14%
    21:00 +33°C° 0 mm 7 mps 726 mmHg 15%
    22:00 +32°C° 0 mm 7 mps 726 mmHg 15%
    23:00 +30°C° 0 mm 7 mps 726 mmHg 16%
    Show more